Location: Lango�lan
(48.1202°N, 3.2340°W)
Time: 14:35:26
(UTC+00:00)

Cosmos 2228 - Pass Details

Date: 23 October 2019
Orbit: 588 x 620 km, 82.5° (Epoch: 19 November)

Event Time Altitude Azimuth Distance (km) Brightness Sun altitude
Rises 05:30:44 0° 337° (NNW) 2,842 6.2 -12.8°
Reaches altitude 10° 05:33:23 10° 321° (NW) 1,931 5.2 -12.4°
Maximum altitude 05:36:31 20° 274° (W) 1,372 4.2 -11.9°
Drops below altitude 10° 05:39:38 10° 226° (SW) 1,913 5.2 -11.3°
Sets 05:42:15 0° 209° (SSW) 2,807 6.2 -10.9°
